Regional Weather Roundup
Issued by NWS Pendleton, OR

Home | Current Version | Previous Version | Text Only | Print | Product List | Glossary On
Versions: 1 2 3 4 5 6 7 8 9 10 11 12 13 14 15 16 17 18 19 20 21 22 23 24 25 26 27 28 29 30 31 32 33 34 35 36 37 38 39 40 41 42 43 44 45 46 47 48 49 50
000
ASUS46 KPDT 290410
RWRPDT
PENDLETON REGIONAL WEATHER ROUNDUP
NATIONAL WEATHER SERVICE PENDLETON OREGON
900 PM PDT TUE MAR 28 2017

NOTE: FAIR INDICATES FEW OR NO CLOUDS BELOW 12,000 FEET WITH NO
SIGNIFICANT WEATHER AND/OR OBSTRUCTIONS TO VISIBILITY.

# INDICATES UNOFFICIAL STATION AND DATA

WAZ520-290510-
EAST SLOPES OF WASHINGTON CASCADES

CITY            SKY/WX      TMP DP  RH  WIND    PRES   REMARKS
#CLE ELUM HS    N/A         40  38  92  CALM    30.11R
#CLE ELUM LAKE  N/A         37  36  96  CALM    30.19S
#GLENWOOD       N/A         46  40  79  S2      30.22S
#MANASTASH CYN  N/A         36  30  79  CALM    30.12R
#NELSON 3SW     N/A         33  32  96  CALM    30.42S
#NILE           N/A         38  34  85  CALM    29.46R
#TEANAWAY 4NE   N/A         41  40  96  CALM    N/A
#TROUT LAKE 1NE N/A         41  38  89  CALM    30.25S
#TROUT LAKE 1E  N/A         37  34  89  CALM    30.23F
$$

WAZ521-290510-
SIMCOE HIGHLANDS

CITY            SKY/WX      TMP DP  RH  WIND    PRES   REMARKS
#BICKLETON HS   N/A         44  33  65  SW14    30.21R WCI 37
#CENTERVILLE 1SWN/A         48  36  63  CALM    30.20S
#GOLDENDALE 1NE N/A         49  24  37  W2      N/A
#GOLDENDALE 4W  N/A         48  12  23  CALM    30.23R
#GOODNOE HILLS  N/A         51  33  50  NW3     30.10S
#LYLE 6NE       N/A         49  39  68  CALM    30.21S
#PITT 4SE       N/A         44  36  73  CALM    30.27S
$$

WAZ026-290510-
KITTITAS VALLEY

CITY            SKY/WX      TMP DP  RH  WIND    PRES   REMARKS
ELLENSBURG AP   CLOUDY      47  37  68  W9      30.16R
#ELLENSBURG CWU N/A         45  38  76  W6      30.12R
#ELLENSBURG 3NE N/A         44  39  82  W3      28.23R
#ELLENSBURG 1E  N/A         45  N/A N/A CALM    N/A
#ELLENSBURG 13S N/A         45  36  70  CALM    N/A
#KITTITAS 4N    N/A         44  37  76  SE1     30.17R
#KITTITAS 3S    N/A         44  39  82  NW2     30.17R
#THORP 6N       N/A         40  38  92  N6      30.22R
$$

WAZ027-290510-
YAKIMA VALLEY

CITY            SKY/WX      TMP DP  RH  WIND    PRES   REMARKS
SUNNYSIDE AP    MOCLDY      47  37  68  NE6     30.19F
YAKIMA AIRPORT  CLOUDY      51  37  59  NE8     30.17R
YAKIMA-VAGABOND MOCLDY      48  35  60  S15     30.15R WCI 42
#DONALD 2NE     N/A         59   3  10  S14     30.07S
#GRANDVIEW      N/A         53  32  45  W1      30.21S
#MABTON         N/A         53  38  57  CALM    30.18F
#MOXEE 2E       N/A         49   0  13  SE6     30.10R
#NACHES 2SW     N/A         48  38  68  W7      30.18S
#TERRACE HTS    N/A         47  37  68  CALM    30.16S
#TOPPENISH      N/A         53  37  54  CALM    30.11S
#WEST VALLEY    N/A         49  37  63  CALM    30.16R
#W YAKIMA       N/A         48  38  68  NE2     30.18R
#WHITE SWAN 5E  N/A         52  38  59  SW3     30.19R
#WILEY CITY 3W  N/A         48  33  56  CALM    30.13R
$$

WAZ028-290510-
LOWER COLUMBIA BASIN...WASHINGTON

CITY            SKY/WX      TMP DP  RH  WIND    PRES   REMARKS
PASCO           CLOUDY      53  39  59  SE10    30.21F
PROSSER AWOS    N/A         54  36  50  SW5     30.23S
RICHLAND AWOS   MOCLDY      55  38  53  S6      30.20F
#BENTON CITY    N/A         52  37  56  W2      30.11F
#CONNELL 5N     N/A         49  41  74  SW3     30.21S
#CONNELL 5NW    N/A         48  41  77  S7      30.16S
#ELTOPIA 6NW    N/A         49  41  74  CALM    29.15F
#KAHLOTUS       N/A         48  39  71  SW10    30.22R
#KENNEWICK 3S   N/A         52  39  61  SW3     30.21F
#PATERSON       N/A         52  41  66  CALM    30.19F
#SAGEMOOR 2W    N/A         48  40  74  S3      30.07F
#TOUCHET 2S     N/A         50  43  77  CALM    30.19S
#WEST PASCO     N/A         53  39  59  S1      30.22F
$$

WAZ029-290510-
FOOTHILLS OF THE BLUES...WASHINGTON

CITY            SKY/WX      TMP DP  RH  WIND    PRES   REMARKS
WALLA WALLA AP  CLOUDY      54  37  52  S12     30.21S
#CLYDE 6NW      N/A         49  40  71  S6      30.21F
#DAYTON SCHOOL  N/A         50  32  50  E7      30.21S
#LOWDEN 2SE     N/A         51  43  74  SE5     30.17F
#PLEASANT VIEW 1N/A         46  39  76  S10     30.25F
#PRESCOTT       N/A         49  41  74  CALM    30.20F
#WHITMAN COLLEGEN/A         53  40  61  SE5     30.27S
#WAITSBURG 5S   N/A         48  38  68  S7      30.32F
#WAITSBURG 8N   N/A         47  N/A N/A S5      30.21S
#WALLA WALLA 5E N/A         53  39  59  S10     N/A
#WHITMAN MISSIONN/A         53  43  69  CALM    30.22S
$$

WAZ030-290510-
BLUE MOUNTAINS...WASHINGTON

CITY            SKY/WX      TMP DP  RH  WIND    PRES   REMARKS
#DIXIE 5SE      N/A         45  33  63  S13     30.13F WCI 39
$$

ORZ009-041-WAZ024-290510-
COLUMBIA RIVER GORGE

CITY            SKY/WX      TMP DP  RH  WIND    PRES   REMARKS
HOOD RIVER AP   MOCLDY      50  41  71  CALM    30.22S
THE DALLES AP   PTCLDY      54  39  57  S3      30.22S
#ARLINGTON AIRPON/A         51  39  63  CALM    30.23S
#CELILO DOT     N/A         54  32  43  S3      N/A
#LYLE           N/A         52  44  74  CALM    30.24S
#MOSIER 1S      N/A         48  31  51  CALM    30.21S
#MURDOCK        N/A         52  44  74  N3      30.19R
#RUFUS DOT      N/A         56  35  45  NW3     N/A
#SMITHVILLE     N/A         55  40  57  N6      30.17S

$$

ORZ510-290510-
NORTH CENTRAL OREGON

CITY            SKY/WX      TMP DP  RH  WIND    PRES   REMARKS
#ANTELOPE       N/A         47  35  63  SW2     30.14S
#CHENOWITH 1W   N/A         48  36  63  N8      N/A
#COW CYN RST AREN/A         47  31  53  S7      N/A
#DUFUR          N/A         47  40  76  CALM    30.20S
#DUFUR 9E       N/A         46  34  63  CALM    30.29F
#GRASS VALLEY 1SN/A         47  35  63  SW6     30.34S
#KENT DOT       N/A         45  26  47  N7      N/A
#MAUPIN SCHOOL  N/A         54  37  52  CALM    30.26S
#MORO SCHOOL    N/A         50  38  63  SW8     30.27F
#SHANIKO 5WSW   N/A         44  27  51  N9      N/A
#SHANIKO 4NW    N/A         44  33  65  S5      30.21F
#TYGH VALLEY 2NEN/A         52  37  56  CALM    30.22S
#WAPANITIA AIRPON/A         49  36  61  W5      30.25S
#WASCO DOT      N/A         50  33  52  NW3     N/A
#WASCO 5NE      N/A         48  38  68  CALM    30.22S
$$

ORZ511-290510-
CENTRAL OREGON

CITY            SKY/WX      TMP DP  RH  WIND    PRES   REMARKS
BEND AIRPORT    CLOUDY      46  28  49  S9      30.23R
MADRAS AIRPORT  CLOUDY      50  30  46  SW9     30.24S
PRINEVILLE AP   CLOUDY      46  32  58  S3      30.23S
REDMOND AIRPORT CLOUDY      48  27  44  S9      30.22F
#ASHWOOD SCHOOL N/A         48  35  60  CALM    30.18R
#BEND 1SW       N/A         44  31  60  SW1     N/A
#BEND-AWBREY    N/A         47  33  58  W8      30.25F
#BEND-KIM LN    N/A         45  36  70  CALM    30.19S
#CULVER         N/A         48  32  54  CALM    30.17S
#CULVER 8W      N/A         49  31  50  CALM    30.20S
#POWELL BUTTE   N/A         48  28  46  W14     30.16S WCI 42
#PRINEVILLE     N/A         47  33  58  CALM    30.36R
#PRINEVILLE 3N  N/A         45  37  73  E6      30.26R
#WARM SPRINGS   N/A         52  37  56  CALM    30.17S

$$


ORZ509-290510-
EAST SLOPES OF OREGON CASCADES

CITY            SKY/WX      TMP DP  RH  WIND    PRES   REMARKS
SISTERS AWOS    N/A         46  34  63  CALM    30.18R
#BLUE BOX PASS  N/A         37  N/A N/A CALM    N/A
#CAMP SHERMAN   N/A         45  34  65  CALM    30.33R
#LA PINE DOT    N/A         42  20  41  CALM    N/A
#LA PINE 4NW    N/A         40  28  62  CALM    30.33S
#LAVA BUTTE DOT N/A         40  23  50  S1      N/A
#SISTERS 3N     N/A         44  27  51  CALM    30.32S
#SUNRIVER       N/A         42  30  62  S1      30.30S
#TUMALO 3W      N/A         45  32  60  E1      30.14R
#WANOGA BUTTE D N/A         35  28  75  W8      N/A

$$

ORZ044-290510-
LOWER COLUMBIA BASIN...OREGON

CITY            SKY/WX      TMP DP  RH  WIND    PRES   REMARKS
HERMISTON       CLOUDY      51  42  71  S6      30.21S
#BOARDMAN SCHOOLN/A         51  41  68  S2      30.20S
#BOARDMAN 8SW   N/A         51  43  74  SW5     30.20F
#ECHO 8SW       N/A         49  42  77  CALM    30.22S
#I-84 EX 198 DOTN/A         50  42  74  N1      N/A
#IONE SCHOOL    N/A         48  30  49  CALM    30.24S
#UMATILLA       N/A         54  39  57  S1      30.14S
$$

ORZ507-290510-
NORTHERN FOOTHILLS OF THE BLUES

CITY            SKY/WX      TMP DP  RH  WIND    PRES   REMARKS
PENDLETON AIRPT CLOUDY      51  40  66  S7      30.21R
#ADAMS 3WNW     N/A         47  41  79  CALM    30.24R
#ATHENA         N/A         49  40  71  SE3     30.26S
#CAYUSE         N/A         51  40  66  SE13    30.22R
#HELIX SCHOOL   N/A         47  42  83  N8      30.24R
#HELIX 3N       N/A         47  41  79  SE10    30.17R
#HOLDMAN 5SE    N/A         49  42  77  S1      30.19S
#HOLDMAN 6E     N/A         48  41  77  E7      30.04R
#M-F FERNDALE   N/A         53  40  61  SE1     30.19S
#M-F GROVE ELEM N/A         52  38  59  E1      30.19S
#M-FREEWATER 5SEN/A         48  40  74  E9      30.21S
#PENDLETON DNTN N/A         51  35  54  CALM    30.22R
#PDT AQUATIC CTRN/A         51  38  61  CALM    30.23R
#PDT SUNRIDGE   N/A         50  41  71  CALM    30.24R
#PENDLETON 7NW  N/A         51  42  71  CALM    25.80S
#PILOT ROCK 1S  N/A         50  36  58  CALM    30.22R
#PILOT ROCK     N/A         49  39  68  N2      30.23R
#TUTUILLA       N/A         51  41  68  S2      30.24R
#UMAPINE 2E     N/A         52  43  71  S7      30.18F
#WESTON SCHOOL  N/A         49  37  63  S5      30.23R

$$

ORZ508-290510-
SOUTHERN FOOTHILLS OF THE BLUES

CITY            SKY/WX      TMP DP  RH  WIND    PRES   REMARKS
LEXINGTON       CLOUDY      48  41  77  E7      30.25R
#AJAX           N/A         50  25  37  S8      30.34S
#CONDON SCHOOL  N/A         46  34  63  W3      30.15S
#CONDON 5W      N/A         44  29  55  SW7     30.18S
#HEPPNER EOC    N/A         48  36  63  CALM    30.18R
#LEXINGTON 2SE  N/A         48  40  74  CALM    30.19S
#MIKKALO        N/A         50  34  54  W5      30.29F
#OLEX 4N        N/A         50  40  68  CALM    30.19S
#RUGGS 5NE      N/A         45  32  60  SW1     30.40S
#RUGGS 2SW      N/A         46  34  63  SW3     30.27R

$$

ORZ502-503-290510-
BLUE MOUNTAINS

CITY            SKY/WX      TMP DP  RH  WIND    PRES   REMARKS
MEACHAM         CLOUDY      38  35  89  CALM    30.24R
#BATTLE MTN DOT N/A         38  33  82  S2      N/A
#GREENHORN 9SW  N/A         37  34  89  CALM    26.43R
#HARDMAN 10S    N/A         40  34  79  CALM    30.40F
#HEPPNER 15SE   N/A         40  33  76  CALM    30.20R
#LADD CYN SMT   N/A         41  37  86  N7      N/A
#LADD CREEK ODOTN/A         42  37  82  SW1     N/A
#LONG CREEK HS  N/A         42  38  86  CALM    N/A
#N POWDER DOT   N/A         44  35  70  N1      N/A
#PIKES PEAK     N/A         44  31  60  W17     27.99S WCI 36
#TOLLGATE       N/A         33  32  96  CALM    30.05R
#TROY SCHOOL    N/A         47  39  74  CALM    30.13R
#UKIAH          N/A         39  36  89  CALM    30.21R
#WESTON 4E      N/A         41  37  86  E7      30.25R
$$

ORZ505-290510-
JOHN DAY BASIN

CITY            SKY/WX      TMP DP  RH  WIND    PRES   REMARKS
JOHN DAY        PTCLDY      44  35  70  CALM    30.25R
#JOHN DAY KJDY  N/A         43  N/A N/A NE1     29.47F
#ANTELOPE 9ESE  N/A         53  35  50  CALM    N/A
#DAYVILLE SCHOOLN/A         49  36  61  CALM    30.18R
#MITCHELL       N/A         46  39  76  CALM    30.37R
#MITCHELL 8NW   N/A         46  31  56  CALM    30.20R
#MONUMENT HS    N/A         48  38  68  CALM    30.17R
#MT. VERNON 5SE N/A         44  34  68  CALM    30.19S
#SPRAY SCHOOL   N/A         50  N/A N/A CALM    N/A
#WINLOCK        N/A         44  36  73  CALM    30.17R
$$

ORZ506-290510-
OCHOCO AND JOHN DAY HIGHLANDS

CITY            SKY/WX      TMP DP  RH  WIND    PRES   REMARKS
#HORSE RIDGE DO N/A         44  27  51  SW8     N/A
#PAULINA SCHOOL N/A         45  35  68  CALM    N/A
#PINE MTN OBS   N/A         36  27  69  S15G26  N/A    WCI 27
#PRAIRIE CITY   N/A         37  30  75  CALM    30.40S
#SENECA 9NW     N/A         33  30  89  CALM    30.32R
$$

ORZ049-290510-
GRANDE RONDE VALLEY

CITY            SKY/WX      TMP DP  RH  WIND    PRES   REMARKS
LA GRANDE       CLOUDY      46  37  71  CALM    30.25R
#COVE           N/A         45  40  82  CALM    30.27R
#COVE SCHOOL    N/A         45  38  76  CALM    30.25R
#COVE 6NW       N/A         44  39  82  CALM    30.30R
#ELGIN 3N       N/A         43  35  73  CALM    30.22R
#ELGIN 1E       N/A         45  37  73  CALM    N/A
#IMBLER SCHOOL  N/A         42  39  89  CALM    30.20R
#ISLAND CITY 4N N/A         53  35  50  W2      30.23S
#LADD CYN DOT   N/A         44  40  86  SE8     N/A
#UNION 1S       N/A         45  39  79  CALM    30.30R
$$

ORZ050-290510-
WALLOWA COUNTY

CITY            SKY/WX      TMP DP  RH  WIND    PRES   REMARKS
JOSEPH AIRPORT  CLOUDY      39  34  82  CALM    30.28R
#IMNAHA SCHOOL  N/A         47  43  86  CALM    30.25R
#IMNAHA 10S     N/A         44  40  86  CALM    30.23R
#JOSEPH 3N      N/A         39  31  73  CALM    30.26R
#JOSEPH 3W      N/A         36  34  92  CALM    30.07R
#LOSTINE        N/A         40  36  85  CALM    30.11R
#LOSTINE 3SE    N/A         40  36  85  CALM    30.30R
#MT HOWARD 8000 N/A         26  25  96  SW7     30.19R
#PROMISE 1S     N/A         38  34  85  CALM    30.40R
#WALLOWA SCHOOL N/A         42  38  86  CALM    30.21R



$$



USA.gov is the U.S. government's official web portal to all federal, state and local government web resources and services.